(464428) = 2010 CT9 = 2016 BN31

Discovered at WISE on 2010-02-08 by WISE.

Orbit

Orbit type: Main Belt

Note: WebGL enabled browser required.

epoch2022-01-21.0
epoch JD2459600.5
perihelion date2020-05-15.70036
perihelion JD2458985.20036
argument of perihelion (°)62.82858
ascending node (°)346.54543
inclination (°)15.83409
eccentricity0.0910944
perihelion distance (AU)2.7613132
Tisserand w.r.t. Jupiter3.2
ΔV w.r.t. Earth (km/sec)11.5
semimajor axis (AU)3.0380639
mean anomaly (°)114.52364
mean daily motion (°/day)0.18612660
aphelion distance (AU)3.315
period (years)5.3
P-vector [x]0.64326428
P-vector [y]0.56966847
P-vector [z]0.51155538
Q-vector [x]-0.76300762
Q-vector [y]0.53236566
Q-vector [z]0.36661449
absolute magnitude16.29
phase slope0.15
uncertainty0
referenceMPO 700252
observations used167
oppositions8
arc length (days)4440
first opposition used2010
last opposition used2022
residual rms (arc-secs)0.63
perturbers coarse indicatorM-v
perturbers precise indicator003Ek
first observation date used2010-02-08.0
last observation date used2022-04-06.0
computer namePan
Minimum Orbit Intersection Distances (in AU)
for orbit epoch: 2458200.5, reference: MPO411439
Mercury2.45779
Venus2.07625
Earth1.80891
Mars1.34024
Jupiter2.06075
Saturn6.21849
Uranus15.0052
Neptune27.0226

Observations

173 total observations over interval: 2010 02 08.348444 – 2022 04 06.245787
These data are available for download (format description).

Date (UT) J2000 RA J2000 Dec Magn Location Ref
2010 02 08.348444 03 10 06.16 +36 03 33.5   C51 – WISE MPS 332171
2010 02 08.480749 03 10 14.23 +36 03 16.9   C51 – WISE MPS 332171
2010 02 08.61305 03 10 22.19 +36 02 59.3   C51 – WISE MPS 313703
2010 02 08.613053 03 10 22.18 +36 02 59.9   C51 – WISE MPS 313703
2010 02 08.745358 03 10 30.21 +36 02 42.2   C51 – WISE MPS 332171
2010 02 08.811573 03 10 34.26 +36 02 34.0   C51 – WISE MPS 313703
2010 02 08.877789 03 10 38.28 +36 02 25.7   C51 – WISE MPS 313703
2010 02 08.943877 03 10 42.30 +36 02 16.9   C51 – WISE MPS 313703
2010 02 09.010094 03 10 46.39 +36 02 08.4   C51 – WISE MPS 313703
2010 02 09.076182 03 10 50.45 +36 02 00.2   C51 – WISE MPS 313703
2010 02 09.14240 03 10 53.85 +36 01 50.0   C51 – WISE MPS 332171
2010 02 09.20861 03 10 58.55 +36 01 43.6   C51 – WISE MPS 313703
2010 02 09.34092 03 11 06.69 +36 01 28.6   C51 – WISE MPS 313703
2010 02 09.473221 03 11 14.85 +36 01 10.2   C51 – WISE MPS 332171
2010 02 09.605525 03 11 23.06 +36 00 53.7   C51 – WISE MPS 313703
2011 02 13.44675 10 34 38.96 +15 51 34.8 20.1 V G96 – Mt. Lemmon Survey MPS 682733
2011 02 13.45311 10 34 38.56 +15 51 35.4 20.6 V G96 – Mt. Lemmon Survey MPS 682733
2011 02 13.45957 10 34 38.24 +15 51 35.7 20.6 V G96 – Mt. Lemmon Survey MPS 682733
2011 02 13.46600 10 34 37.84 +15 51 36.3 20.4 V G96 – Mt. Lemmon Survey MPS 682733
2011 03 05.24741 10 15 59.40 +16 06 55.6 20.1 V G96 – Mt. Lemmon Survey MPS 682733
2011 03 05.25650 10 15 58.89 +16 06 55.8 20.6 V G96 – Mt. Lemmon Survey MPS 682733
2011 03 05.26552 10 15 58.35 +16 06 55.6 20.3 V G96 – Mt. Lemmon Survey MPS 682733
2011 03 05.27460 10 15 57.85 +16 06 55.9 21.1 V G96 – Mt. Lemmon Survey MPS 682733
2014 06 30.58929 01 18 58.264 +13 02 48.32 21.8 w F51 – Pan-STARRS 1, Haleakala MPS 682733
2014 06 30.59324 01 18 58.458 +13 02 50.35 22.0 w F51 – Pan-STARRS 1, Haleakala MPS 682733
2014 06 30.59719 01 18 58.674 +13 02 53.14 22.0 w F51 – Pan-STARRS 1, Haleakala MPS 682733
2014 06 30.60113 01 18 58.897 +13 02 55.57 21.6 w F51 – Pan-STARRS 1, Haleakala MPS 682733
2014 09 25.44222 01 36 22.16 +24 36 05.2 20.3 V G96 – Mt. Lemmon Survey MPS 682733
2014 09 25.44362 01 36 22.09 +24 36 05.3 20.1 V G96 – Mt. Lemmon Survey MPS 682733
2014 09 25.44505 01 36 22.04 +24 36 05.7 20.1 V G96 – Mt. Lemmon Survey MPS 682733
2014 09 25.44644 01 36 21.96 +24 36 05.9 20.2 V G96 – Mt. Lemmon Survey MPS 682733
2014 10 01.53962 01 31 16.989 +24 53 17.41 20.4 w F51 – Pan-STARRS 1, Haleakala MPS 682733
2014 10 01.55236 01 31 16.292 +24 53 19.08 20.3 w F51 – Pan-STARRS 1, Haleakala MPS 682733
2014 10 01.56507 01 31 15.598 +24 53 20.65 20.3 w F51 – Pan-STARRS 1, Haleakala MPS 682733
2014 10 01.57782 01 31 14.902 +24 53 22.26 20.4 w F51 – Pan-STARRS 1, Haleakala MPS 682733
2014 10 22.18573 01 11 14.58 +24 59 10.8 20.2 V 703 – Catalina Sky Survey MPS 682733
2014 10 22.19123 01 11 14.16 +24 59 09.6 20.0 V 703 – Catalina Sky Survey MPS 682733
2014 10 22.19674 01 11 13.84 +24 59 08.4 19.8 V 703 – Catalina Sky Survey MPS 682733
2014 10 22.20224 01 11 13.57 +24 59 08.9 20.4 V 703 – Catalina Sky Survey MPS 682733
2014 10 22.25785 01 11 10.17 +24 59 03.2 19.6 V G96 – Mt. Lemmon Survey MPS 682733
2014 10 22.26544 01 11 09.74 +24 59 02.6 19.6 V G96 – Mt. Lemmon Survey MPS 682733
2014 10 22.27302 01 11 09.27 +24 59 01.9 19.6 V G96 – Mt. Lemmon Survey MPS 682733
2014 10 22.28504 01 11 08.54 +24 59 00.7 19.4 V G96 – Mt. Lemmon Survey MPS 682733
2014 10 29.23708 01 04 34.38 +24 44 51.5 20.0 V 703 – Catalina Sky Survey MPS 682733
2014 10 29.24208 01 04 34.05 +24 44 52.5 20.5 V 703 – Catalina Sky Survey MPS 682733
2014 10 29.24709 01 04 33.74 +24 44 51.0 20.0 V 703 – Catalina Sky Survey MPS 682733
2014 10 29.25209 01 04 33.44 +24 44 52.0 20.4 V 703 – Catalina Sky Survey MPS 682733
2014 11 26.14834 00 47 43.53 +23 18 18.6 20.4 V G96 – Mt. Lemmon Survey MPS 682733
2014 11 26.15565 00 47 43.42 +23 18 17.9 20.3 V G96 – Mt. Lemmon Survey MPS 682733
2014 11 26.16297 00 47 43.30 +23 18 16.5 19.9 V G96 – Mt. Lemmon Survey MPS 682733
2014 11 26.17027 00 47 43.18 +23 18 15.2 20.6 V G96 – Mt. Lemmon Survey MPS 682733
2016 01 13.43765 09 17 41.532 +32 04 15.62 20.6 w F51 – Pan-STARRS 1, Haleakala MPS 682733
2016 01 13.44841 09 17 40.936 +32 04 17.18 20.6 w F51 – Pan-STARRS 1, Haleakala MPS 682733
2016 01 13.45916 09 17 40.337 +32 04 18.57 20.5 w F51 – Pan-STARRS 1, Haleakala MPS 682733
2016 01 13.46991 09 17 39.746 +32 04 20.02 20.6 w F51 – Pan-STARRS 1, Haleakala MPS 682733
2016 01 29.38671 09 01 37.429 +32 25 08.32 20.2 r F51 – Pan-STARRS 1, Haleakala MPS 675489
2016 01 29.39816 09 01 36.673 +32 25 08.41 20.3 r F51 – Pan-STARRS 1, Haleakala MPS 675489
2016 01 29.40960 09 01 35.927 +32 25 08.83 20.3 r F51 – Pan-STARRS 1, Haleakala MPS 675489
2016 01 29.42105 09 01 35.158 +32 25 08.83 20.2 r F51 – Pan-STARRS 1, Haleakala MPS 675489
2016 01 30.30181 09 00 38.27 +32 25 15.5 20.4 V G96 – Mt. Lemmon Survey MPS 675489
2016 01 30.31027 09 00 37.69 +32 25 15.5 20.5 V G96 – Mt. Lemmon Survey MPS 675489
2016 01 30.31873 09 00 37.15 +32 25 15.6 20.4 V G96 – Mt. Lemmon Survey MPS 675489
2016 01 30.32719 09 00 36.59 +32 25 15.6 20.4 V G96 – Mt. Lemmon Survey MPS 675489
2016 02 04.31750 08 55 14.750 +32 23 33.15 20.5 w F51 – Pan-STARRS 1, Haleakala MPS 675489
2016 02 04.34169 08 55 13.160 +32 23 32.20 20.6 w F51 – Pan-STARRS 1, Haleakala MPS 675489
2016 02 04.35385 08 55 12.359 +32 23 31.78 20.6 w F51 – Pan-STARRS 1, Haleakala MPS 675489
2016 02 13.28765 08 46 00.000 +32 09 52.01 20.7 w F51 – Pan-STARRS 1, Haleakala MPS 682733
2016 02 13.29858 08 45 59.343 +32 09 50.46 20.5 w F51 – Pan-STARRS 1, Haleakala MPS 682733
2016 02 13.30959 08 45 58.687 +32 09 49.16 20.7 w F51 – Pan-STARRS 1, Haleakala MPS 682733
2016 02 13.32056 08 45 58.005 +32 09 47.61 20.6 w F51 – Pan-STARRS 1, Haleakala MPS 682733
2016 03 04.24123 08 30 32.805 +30 54 41.56 20.9 w F51 – Pan-STARRS 1, Haleakala MPS 686886
2016 03 04.25354 08 30 32.395 +30 54 37.84 20.9 w F51 – Pan-STARRS 1, Haleakala MPS 686886
2016 03 04.27835 08 30 31.553 +30 54 30.54 21.0 w F51 – Pan-STARRS 1, Haleakala MPS 686886
2016 03 13.24205 08 26 51.624 +30 05 29.34 21.1 w F51 – Pan-STARRS 1, Haleakala MPS 692780
2016 03 13.25362 08 26 51.403 +30 05 25.50 21.1 w F51 – Pan-STARRS 1, Haleakala MPS 692780
2016 03 13.26518 08 26 51.192 +30 05 21.54 21.1 w F51 – Pan-STARRS 1, Haleakala MPS 692780
2016 03 13.27681 08 26 50.982 +30 05 17.43 21.3 w F51 – Pan-STARRS 1, Haleakala MPS 692780
2017 03 04.57885 13 32 19.260 -20 58 52.81 21.2 w F51 – Pan-STARRS 1, Haleakala MPS 777633
2017 03 04.60254 13 32 18.576 -20 58 57.71 21.2 w F51 – Pan-STARRS 1, Haleakala MPS 777633
2017 03 04.61351 13 32 18.255 -20 59 00.05 21.2 w F51 – Pan-STARRS 1, Haleakala MPS 777633
2017 03 04.62446 13 32 17.938 -20 59 02.32 21.5 w F51 – Pan-STARRS 1, Haleakala MPS 777633
2017 05 27.26837 12 35 23.167 -19 12 17.94 21.9 w F51 – Pan-STARRS 1, Haleakala MPS 800614
2017 05 27.27939 12 35 23.023 -19 12 16.49 21.6 w F51 – Pan-STARRS 1, Haleakala MPS 800614
2017 05 27.29040 12 35 22.901 -19 12 14.90 21.6 w F51 – Pan-STARRS 1, Haleakala MPS 800614
2017 05 27.30143 12 35 22.759 -19 12 13.14 21.7 w F51 – Pan-STARRS 1, Haleakala MPS 800614
2019 08 22.51245 00 04 42.546 +02 29 07.05 20.4 i F52 – Pan-STARRS 2, Haleakala MPS 1023768
2019 08 22.52470 00 04 42.078 +02 29 08.49 20.4 i F52 – Pan-STARRS 2, Haleakala MPS 1023768
2019 08 22.53695 00 04 41.615 +02 29 09.95 20.2 i F52 – Pan-STARRS 2, Haleakala MPS 1023768
2019 08 22.54925 00 04 41.118 +02 29 10.78 20.4 i F52 – Pan-STARRS 2, Haleakala MPS 1023768
2019 09 04.32611 23 55 22.65 +02 44 45.4 20.1 G G96 – Mt. Lemmon Survey MPS 1031740
2019 09 04.33134 23 55 22.39 +02 44 45.8 20.1 G G96 – Mt. Lemmon Survey MPS 1031740
2019 09 04.33658 23 55 22.12 +02 44 45.7 20.1 G G96 – Mt. Lemmon Survey MPS 1031740
2019 09 04.34182 23 55 21.83 +02 44 46.2 20.4 G G96 – Mt. Lemmon Survey MPS 1031740
2019 09 20.28576 23 40 56.08 +02 45 24.4 19.9 G G96 – Mt. Lemmon Survey MPS 1037279
2019 09 20.29084 23 40 55.79 +02 45 24.0 19.9 G G96 – Mt. Lemmon Survey MPS 1037279
2019 09 20.29592 23 40 55.51 +02 45 24.1 20.0 G G96 – Mt. Lemmon Survey MPS 1037279
2019 09 20.30624 23 40 54.90 +02 45 23.8 20.0 G G96 – Mt. Lemmon Survey MPS 1037279
2019 09 29.37440 23 32 32.486 +02 40 25.32 20.1 w F51 – Pan-STARRS 1, Haleakala MPS 1056609
2019 09 29.38700 23 32 31.782 +02 40 24.89 20.2 w F51 – Pan-STARRS 1, Haleakala MPS 1056609
2019 09 29.39960 23 32 31.083 +02 40 24.34 20.3 w F51 – Pan-STARRS 1, Haleakala MPS 1056609
